Location: Bouillancy
(49.1149°N, 2.9308°E)
Time: 22:02:40
(UTC+00:00)

APEX - Pass Details

Date: 30 September 2020
Orbit: 329 x 1104 km, 69.9° (Epoch: 24 October)

Event Time Altitude Azimuth Distance (km) Brightness Sun altitude
Rises 18:56:57 0° 187° (S) 2,285 6.4 -15.2°
Reaches altitude 10° 18:58:53 10° 178° (S) 1,513 5.4 -15.6°
Maximum altitude 19:01:57 36° 109° (ESE) 784 3.5 -16.0°
Enters shadow 19:02:25 34° 91° (E) 826 3.7 -16.1°
Exits shadow 19:07:00 - 38° (NE) 2,388 6.3 -16.8°
Sets 19:08:20 0° 35° (NE) 2,923 6.8 -17.0°
